Terminal Aerodrome Forecast
Issued by NWS Boston, MA

Home | Current Version | Previous Version | Text Only | Print | Product List | Glossary On
Versions: 1 2 3 4 5 6 7 8 9 10 11 12 13 14 15 16 17 18 19 20 21 22 23 24 25 26 27 28 29 30 31 32 33 34 35 36 37 38 39 40 41 42 43
000
FTUS41 KBOX 190536
TAFBDL
TAF
KBDL 190536Z 1906/2012 31007KT P6SM OVC025
     FM191200 31010KT P6SM BKN035
     FM200100 33005KT P6SM BKN035
     FM200500 35004KT P6SM BKN200=

USA.gov is the U.S. government's official web portal to all federal, state and local government web resources and services.